Weather History for EGHE - October, 2012

Change the Weather History Date:

Tuesday, October 30, 2012

  Actual Average Record
Temperature  
Mean Temperature 50 °F -  
Max Temperature 53 °F 51 °F 60 °F (2001)
Min Temperature 48 °F 49 °F 46 °F (2002)
Degree Days  
Heating Degree Days 14    
Moisture  
Dew Point 42 °F    
Average Humidity 70    
Maximum Humidity 82    
Minimum Humidity 54    
Precipitation  
Precipitation 0.01 in - - ()
Sea Level Pressure  
Sea Level Pressure 29.73 in    
Wind  
Wind Speed 7 mph ()    
Max Wind Speed 16 mph    
Max Gust Speed -    
Visibility 6.7 miles    
Events      
Averages and records for this station are not official NWS values.
T = Trace of Precipitation, MM = Missing Value Source: Averaged Metar Reports

Daily Weather History Graph

Daily Weather History Graph

Search for Another Location

Airport or City:

Trip Planner

Search our weather history database for the weather conditions in past years. The results will help you decide how hot, cold, wet, or windy it might be!

Date:

Astronomy

Oct. 30, 2012 Rise Set
Actual Time 7:11 AM GMT 5:05 PM GMT
Civil Twilight 6:38 AM GMT 5:38 PM GMT
Nautical Twilight 6:00 AM GMT 6:16 PM GMT
Astronomical Twilight 5:22 AM GMT 6:54 PM GMT
Moon 5:17 PM GMT (10/30) 7:52 AM GMT (10/30)
Length of Visible Light 11h 00m
Length of Day
9h 53m
Full, 100% of the Moon is Illuminated
Oct 30
Full
Nov 7
Last Quarter
Nov 13
New
Nov 20
First Quarter
Nov 28
Full

Hourly Weather History & Observations

Time (GMT) Temp. Dew Point Humidity Pressure Visibility Wind Dir Wind Speed Gust Speed Precip Events Conditions
2:50 AM 49 °F 43 °F 74% 29.83 in 31 mi North 6.9 mph - -   Scattered Clouds
5:50 AM 48 °F 42 °F 75% 29.80 in 31 mi North 6.9 mph - -   Scattered Clouds
7:20 AM 50.0 °F 42.8 °F 76% 29.80 in 6.2 mi North 8.1 mph - N/A   Scattered Clouds
7:50 AM 50.0 °F 44.6 °F 82% 29.80 in 6.2 mi North 12.7 mph - N/A   Scattered Clouds
8:20 AM 50.0 °F 42.8 °F 76% 29.80 in 6.2 mi NNE 11.5 mph - N/A   Scattered Clouds
8:50 AM 50 °F 43 °F 70% 29.80 in 31 mi NNE 11.5 mph - -   Scattered Clouds
8:50 AM 50.0 °F 42.8 °F 76% 29.80 in 6.2 mi NNE 12.7 mph - N/A   Scattered Clouds
9:20 AM 50.0 °F 42.8 °F 76% 29.80 in 6.2 mi NNE 11.5 mph - N/A   Scattered Clouds
9:50 AM 50.0 °F 42.8 °F 76% 29.80 in 6.2 mi NNE 9.2 mph - N/A   Scattered Clouds
10:20 AM 51.8 °F 42.8 °F 71% 29.77 in 6.2 mi NNE 9.2 mph - N/A   Scattered Clouds
10:50 AM 51.8 °F 42.8 °F 71% 29.77 in 6.2 mi NNE 8.1 mph - N/A   Partly Cloudy
11:20 AM 51.8 °F 42.8 °F 71% 29.77 in - North 6.9 mph - N/A   Clear
11:50 AM 52 °F 40 °F 54% 29.77 in 28 mi North 5.8 mph - -   Scattered Clouds
11:50 AM 51.8 °F 41.0 °F 67% 29.77 in - NNE 4.6 mph - N/A   Clear
12:20 PM 51.8 °F 41.0 °F 67% 29.74 in 6.2 mi NNE 5.8 mph - N/A   Partly Cloudy
12:50 PM 51.8 °F 41.0 °F 67% 29.74 in 6.2 mi North 8.1 mph - N/A   Partly Cloudy
1:20 PM 51.8 °F 41.0 °F 67% 29.71 in 6.2 mi North 6.9 mph - N/A   Partly Cloudy
1:50 PM 51.8 °F 41.0 °F 67% 29.71 in 6.2 mi NNW 6.9 mph - N/A   Partly Cloudy
2:20 PM 51.8 °F 41.0 °F 67% 29.71 in 6.2 mi WNW 5.8 mph - N/A   Scattered Clouds
2:50 PM 50 °F 41 °F 62% 29.69 in 31 mi WNW 5.8 mph - -   Mostly Cloudy
2:50 PM 50.0 °F 41.0 °F 71% 29.68 in 6.2 mi West 4.6 mph - N/A   Scattered Clouds
3:20 PM 51.8 °F 41.0 °F 67% 29.68 in 6.2 mi WSW 3.5 mph - N/A   Partly Cloudy
3:50 PM 50.0 °F 41.0 °F 71% 29.68 in 6.2 mi WNW 5.8 mph - N/A   Scattered Clouds
4:20 PM 50.0 °F 41.0 °F 71% 29.65 in 6.2 mi West 5.8 mph - N/A   Mostly Cloudy
4:50 PM 50.0 °F 41.0 °F 71% 29.65 in 6.2 mi West 6.9 mph - N/A   Mostly Cloudy
5:20 PM 50.0 °F 41.0 °F 71% 29.65 in 6.2 mi West 8.1 mph - N/A   Mostly Cloudy
5:50 PM 49 °F 41 °F 66% 29.65 in 25 mi West 8.1 mph - -   Scattered Clouds
8:50 PM 50 °F 39 °F 57% 29.60 in 31 mi WSW 11.5 mph - -   Overcast
11:50 PM 50 °F 42 °F 65% 29.50 in 17 mi WSW 16.1 mph - -   Mostly Cloudy